STARLINK-31863, 59789

Orbit data source: Space-Track

STARLINK-31863, 59789 is a payload satellite owned by SpaceX/Seattle (US) in LEO that was launched on Sat, 18 May 2024 UTC via an FALCON 9 launch vehicle from the Air Force Eastern Test Range (AFETR). Payload-class satellites include a variety of spacecraft equipped with specific instruments for various scientific and technological missions. These include communications satellites like Starlink; space stations such as the ISS; scientific satellites like the Hubble; Earth observation satellites from companies like Planet Labs, Umbra, and HawkEye 360; GPS; miniature CubeSats for education and research; and military/defense satellites.

Loading next visibility...
Identifier
59789, 2024-093H
Orbit
LEO
Country
Flag of USUS
Related business
Manufacturer
SpaceX/Seattle
Mission
Operational spacecraft
Bus & Motor
STARLINK V2M, Unknown motor
Mass
730 kg wet, ~700 kg dry
Launch date (UTC)
2024-05-18 (1 year ago)
Launch vehicle
FALCON 9
Launch site
Air Force Eastern Test Range (AFETR)
Object type
Payload
Rocket body
Debris
Shape & HBR
Unknown
Radar Cross Section
Large (>1 m²)

Expand to show TLE details & history
Last TLE update: 2 days ago

TLE from 2 days ago
0 STARLINK-31863
1 59789U 24093H   25259.00938779  .00001842  00000-0  76420-4 0  9990
2 59789  43.0040 115.1121 0001275 275.3502  84.7205 15.27585399 75981
Epoch: 2025-09-16T00:13Z
TLE epoch observation values (Epoch: 2025-09-16T00:13:31.105Z)
Latitude
0.00005°
Longitude
116.52671°
Altitude
482.728 km
Speed
7.626 km/s
True Right ascension
07h 40m 26s
True Declination
0° 00' 00"
Sunlit
Object was in daylight at epoch
Visualization orbit readout
Latitude
Unknown
Longitude
Unknown
Altitude
Unknown
Speed
Unknown
Apparent Right ascension
Unknown
Apparent Declination
Unknown
Sunlit
N/A
Visualization observer readout
Local Sidereal Time
14:13:09
Azimuth
Unknown
Elevation
Unknown
Doppler factor
Unknown
Orbital elements
Apogee altitude
485.852 km
Perigee altitude
484.102 km
Semi-major axis
6,863.114 km
Eccentricity
0.00013
Inclination
43.004°
RAAN
115.1121°
Arg. of periapsis
275.3502°
True anomaly
84.73505°
Mean anomaly
84.7205°
Eccentric anomaly
84.72777°
Mean motion
3.81734 °/min
Orbital period
94.31 mins
BSTAR
0.00007642
Loading maneuver chart data...
Computing Atmospheric mass density...
Loading historical data...
Loading historical data...
Loading historical data...
Loading historical data...
Loading historical data...
Loading historical data...
Loading historical data...

Documentation

Showing up to 5 results
|